HEMAVAN current weather conditions

sailwx.info

Wind from 150 at 10 knots

Air temperature -0.0° C
Visibility: greater than 5.4 NM
Dewpoint -3.0° C

Last reported at 2014-Oct-21 03:20 UTC.
Time now 2014-Oct-21 05:33 UTC

Location: N 65°48' E 015°05'.
View on Google Maps.

See reports from other nearby stations

  
Tides and Currents Weather Stations Pressure Air Temp Water Temp Dewpoint Dewpoint Depression Visibility Wind Speed Wind Dir Waves Ship Positions
date/time (UTC)wind fromknots sea level pressurealtimeterstation pressurevisibilityair tempwater tempwave heightnotes
2014-Oct-21 03:20 150 10 5.4-0.0
2014-Oct-21 02:50 140 11 5.4-0.0
2014-Oct-21 02:20 140 10 5.4-0.0
2014-Oct-21 01:50 130 10 5.4-0.0 Snow grains.
2014-Oct-21 01:20 150 9 5.4-0.0 Light snow.
2014-Oct-21 00:50 150 10 5.4-0.0
2014-Oct-21 00:20 140 9 5.4-0.0
2014-Oct-20 23:50 140 10 5.4-0.0 Snow grains.
2014-Oct-20 23:20 150 10 5.4-0.0 Snow grains.
2014-Oct-20 22:50 170 9 5.4-0.0 Snow grains.
2014-Oct-20 22:20 160 10 5.4-1.0 Snow grains.
2014-Oct-20 21:50 160 10 5.4-0.0 Snow grains.
2014-Oct-20 21:20 150 10 5.4-0.0
2014-Oct-20 20:50 140 11 5.4-0.0 Snow grains.
2014-Oct-20 20:20 160 8 5.4-0.0 Light snow.
2014-Oct-20 19:50 170 7 5.4-1.0
2014-Oct-20 19:20 170 8 5.4-1.0 Snow grains.
2014-Oct-20 18:50 160 11 5.4-1.0 Freezing precipitation.
2014-Oct-20 18:20 150 10 5.4-0.0
2014-Oct-20 17:50 150 10 5.4-0.0
2014-Oct-20 17:20 160 10 5.4-1.0
2014-Oct-20 16:50 170 11 5.4-0.0 Snow grains.
2014-Oct-20 16:20 160 14 5.4-0.0 Light snow.
2014-Oct-20 15:50 170 11 5.4-0.0 Light snow.
2014-Oct-20 15:20 170 12 5.4-1.0
2014-Oct-20 14:50 160 11 5.4-1.0 Light snow.
2014-Oct-20 14:20 180 14 5.4-0.0 Snow grains.
2014-Oct-20 13:50 160 14 5.4-1.0 Light snow.
2014-Oct-20 13:20 150 15 5.4-0.0
2014-Oct-20 12:50 150 11 5.4-0.0
2014-Oct-20 12:20 150 12 5.4-0.0
2014-Oct-20 11:50 150 13 5.4-0.0
2014-Oct-20 11:20 120 16 5.4-0.0
2014-Oct-20 10:50 130 16 5.4-0.0
2014-Oct-20 10:20 160 17 5.4-0.0
2014-Oct-20 09:50 150 17 5.4-0.0
2014-Oct-20 09:20 130 16 5.4-0.0
2014-Oct-20 08:50 130 14 5.4-0.0
2014-Oct-20 08:20 120 16 5.4-0.0
2014-Oct-20 07:50 130 14 5.4-0.0
2014-Oct-20 07:20 130 16 5.4-1.0
2014-Oct-20 06:50 130 16 5.4-0.0
2014-Oct-20 06:20 130 14 5.4-0.0
2014-Oct-20 05:50 140 16 5.4-0.0
2014-Oct-20 05:20 160 17 5.4-0.0
2014-Oct-20 04:50 150 16 5.4-0.0
2014-Oct-20 03:20 150 14 5.4-0.0
2014-Oct-20 02:50 150 15 5.4-0.0 Snow grains.
2014-Oct-20 02:20 170 16 5.4-0.0 Freezing precipitation.
2014-Oct-20 01:50 160 15 5.4-0.0
2014-Oct-20 01:20 150 15 5.4-0.0
2014-Oct-20 00:50 150 15 5.4-0.0 Snow grains.
2014-Oct-20 00:20 150 14 5.4-0.0 Snow grains.
2014-Oct-19 23:50 150 15 5.4-0.0
2014-Oct-19 23:20 140 17 5.4-0.0
2014-Oct-19 22:50 140 16 5.4 1.0
2014-Oct-19 22:20 140 15 5.4 1.0
2014-Oct-19 21:50 150 15 5.4-0.0
2014-Oct-19 21:20 150 16 5.4-0.0
2014-Oct-19 20:50 150 14 5.4-0.0
2014-Oct-19 20:20 150 14 5.4-0.0
2014-Oct-19 19:50 150 14 5.4-0.0
2014-Oct-19 19:20 150 12 5.4-0.0
2014-Oct-19 18:50 150 14 5.4-0.0
2014-Oct-19 18:20 160 12 5.4-0.0
2014-Oct-19 17:50 160 14 5.4-0.0
2014-Oct-19 17:20 160 13 5.4-0.0
2014-Oct-19 16:50 170 12 5.4-0.0
2014-Oct-19 16:20 170 12 5.4-0.0 Snow grains.
2014-Oct-19 15:50 170 11 5.4-0.0 Light snow.
2014-Oct-19 15:20 170 12 5.4-0.0 Snow grains.
2014-Oct-19 14:50 160 12 5.4-0.0 Snow grains.
2014-Oct-19 14:20 160 13 2.7-0.0 Light snow.
2014-Oct-19 13:50 160 15 4.9-0.0 Light snow.
2014-Oct-19 13:20 160 15 5.4-0.0 Precipitation.
2014-Oct-19 12:50 160 15 5.4 1.0
2014-Oct-19 12:20 160 16 5.4 1.0
2014-Oct-19 11:50 150 13 5.4 1.0 Precipitation.
2014-Oct-19 11:20 120 8 5.4 1.0
2014-Oct-19 10:50 160 13 5.4 1.0
2014-Oct-19 10:20 130 10 5.4-0.0
2014-Oct-19 09:50 160 13 5.4-0.0
2014-Oct-19 09:20 160 12 5.4-0.0
2014-Oct-19 08:50 170 13 5.4-0.0
2014-Oct-19 08:20 170 12 5.4-1.0
2014-Oct-19 07:50 130 8 5.4-1.0
2014-Oct-19 07:20 160 11 5.4-1.0
2014-Oct-19 06:50 160 12 5.4-1.0
2014-Oct-19 06:20 160 6 5.4-1.0
2014-Oct-19 05:50 310 4 5.4-1.0
2014-Oct-19 05:20 350 6 5.4-3.0